User: anonymous   Login
Location: Oshawa
(43.9000°N, 78.8670°W)
Time: 04:36:11
(UTC-05:00)
Language:

Hubble Space Telescope - Orbit

View from above orbital plane
View from above orbital plane
View from above satellite
View from above satellite

Ground track
Ground track

The orbit data is extracted from the following two-line orbital elements,

1 20580U 90037B   16343.92085648  .00000622  00000-0  27567-4 0  9994
2 20580  28.4686 184.6132 0002590 287.4836 279.4242 15.08616279261521
Epoch (UTC): 08 December 2016 22:06:02
Eccentricity: 0.0002590
inclination: 28.4686°
perigee height: 538 km
apogee height: 542 km
right ascension of ascending node: 184.6132°
argument of perigee: 287.4836°
revolutions per day: 15.08616279
mean anomaly at epoch: 279.4242°
orbit number at epoch: 26152

The dashed part of the orbit path shows where the satellite is in the earth's shadow,  

DLR